Weather Roundup
Issued by NWS Chicago, IL

Home | Current Version | Previous Version | Graphics & Text | Print | Product List | Glossary On
Versions: 1 2 3 4 5 6 7 8 9 10 11 12 13 14 15 16 17 18 19 20 21 22 23 24 25 26 27 28 29 30 31 32 33 34 35 36 37 38 39 40 41 42 43 44 45 46 47 48 49 50
000
NZUS59 KLOT 281709
HRRLOT

CHICAGO AREA WEATHER ROUNDUP
NATIONAL WEATHER SERVICE CHICAGO/ROMEOVILLE IL
1200 PM CDT SUN MAY 28 2017

NOTE: "FAIR" INDICATES FEW OR NO CLOUDS BELOW 12,000 FEET WITH NO
SIGNIFICANT WEATHER AND/OR OBSTRUCTIONS TO VISIBILITY.

* THESE STATIONS ARE NOT UNDER NWS QUALITY CONTROL. THEY ALSO MAY NOT
  REPORT WEATHER SUCH AS PRECIPITATION OR FOG.

ILZ005-006-012>014-019>023-281800-
NORTHEAST ILLINOIS

CITY           SKY/WX    TMP DP  RH WIND       PRES   REMARKS
OHARE          CLOUDY    73  59  61 W7        29.73F
MIDWAY         PTSUNNY   75  62  64 NW13      29.72F
AURORA         CLOUDY    72  62  71 NW8       29.75S
LANSING*       PTSUNNY   75  64  69 NW10      29.73F
JOLIET*        CLOUDY    75  63  65 W6        29.74F
WAUKEGAN       CLOUDY    67  58  72 VRB6      29.74S
DUPAGE AIRPORT CLOUDY    70  61  73 NW3       29.74S
WHEELING       CLOUDY    71  60  68 N5        29.75S
KANKAKEE*      PTSUNNY   77  62  58 W14       29.75R
MORRIS*        CLOUDY    74  61  63 NW6       29.73F
LEWIS AIRPORT* PTSUNNY   74  65  73 NW6       29.74F
NORTHERLY ISL    N/A     61  55  81 N12         N/A
$$

WIZ051-052-058>065-066-070>072-281800-
SOUTHEAST WISCONSIN

CITY           SKY/WX    TMP DP  RH WIND       PRES   REMARKS
MILWAUKEE      CLOUDY    62  59  90 NW7       29.75S
KENOSHA*       CLOUDY    63  60  90 W7        29.75S
RACINE*        LGT RAIN  61  59  93 N5        29.76S
WAUKESHA       PTSUNNY   59  55  88 NW5       29.77S
WEST BEND      PTSUNNY   61  59  94 NW3       29.75F
$$

INZ001>003-010>013-019-020-281800-
NORTHWEST INDIANA

CITY           SKY/WX    TMP DP  RH WIND       PRES   REMARKS
GARY*          PTSUNNY   68  59  73 N13       29.75R HAZE
MICHIGAN CITY* NOT AVBL
RENSSELAER*    NOT AVBL
VALPARAISO     PTSUNNY   76  66  71 N10       29.73F
$$

LMZ740>746-281800-
SOUTHERN LAKE MICHIGAN

STATION/POSITION TIME  SKY/WX   TEMP WIND        PRES    VSBY
                                AIR  DIR/SP/G
                 (UTC)          (F)  (DEG/KT/KT) (MB)    (MI)
HARRISON CRIB    1640            55   20/ 11/ 12   N/A
BURNHAM HARBOR   1700            62   20/  7/ 16   N/A
CALUMET HARBOR   1642            62  350/  9/ 15 1006.9R
BURNS HARBOR     1630            59   30/  6/  8 1007.8R
MICHIGAN CITY    1640            58   70/  1/  2   N/A
$$

ABBREVIATIONS USED IN REMARKS
   TC - TEMPERATURE IN CELSIUS
  WCI - WIND CHILL INDEX
   HX - HEAT INDEX
  VSB - VISIBILITY
$$



USA.gov is the U.S. government's official web portal to all federal, state and local government web resources and services.